Vorticity
nan nan nan nan nan nan nan nan nan nan nan nan nan nan nan nan nan nan nan nan nan nan nan nan nan nan nan nan nan nan nan nan nan nan nan nan nan nan nan nan nan nan nan
nan 7 7 7 7 8 9 8 8 7 6 7 7 7 6 6 6 8 8 3 4 15 13 8 7 7 6 7 8 8 10 9 6 4 5 5 5 5 5 5 6 7 nan
nan 7 7 6 7 9 8 6 6 7 7 7 6 6 6 6 7 7 8 7 4 5 14 14 9 8 7 7 8 9 8 8 6 6 5 6 5 5 5 5 6 6 nan
nan 6 5 7 8 8 7 6 5 6 7 7 6 6 7 6 6 7 8 8 8 6 11 15 12 10 8 8 7 7 7 7 6 7 5 5 5 6 6 6 7 5 nan
nan 6 7 9 8 7 8 7 8 8 6 7 7 7 7 7 7 7 6 7 8 9 12 14 10 9 9 8 6 5 5 6 5 5 5 6 6 7 7 7 6 6 nan
nan 7 9 8 6 6 8 10 9 7 7 7 6 6 7 8 8 8 7 8 8 9 11 11 7 10 14 11 7 6 4 4 5 6 6 6 6 7 7 6 6 6 nan
nan 7 8 8 7 8 8 7 8 6 6 5 3 5 6 7 7 8 8 9 8 10 12 12 9 10 13 11 9 8 6 6 7 6 6 5 5 6 6 5 6 6 nan
nan 7 8 7 6 7 9 8 3 -0 9 6 1 6 7 5 6 7 8 8 9 10 12 12 11 11 9 9 10 9 8 7 6 6 5 6 5 6 6 5 6 6 nan
nan 7 7 7 7 6 8 7 7 5 5 9 4 4 9 8 6 6 7 8 9 9 10 10 13 9 7 10 9 8 10 9 8 5 6 6 5 6 7 5 6 6 nan
nan 8 7 7 6 7 8 7 6 7 8 6 5 6 9 12 8 8 7 7 8 8 8 9 10 9 10 8 8 10 10 9 9 6 6 6 6 6 6 7 6 5 nan
nan 7 8 7 5 7 9 9 6 5 6 7 5 6 7 7 10 10 10 8 8 9 7 8 9 10 9 8 10 11 9 9 8 6 5 5 6 6 6 7 6 6 nan
nan 11 7 7 7 8 8 8 8 7 5 6 6 6 7 7 8 7 8 10 10 9 8 8 9 9 9 9 9 11 11 11 10 6 4 5 5 6 6 6 6 6 nan
nan 13 9 6 7 8 8 9 9 8 6 7 6 4 6 6 7 8 9 9 10 9 9 9 10 9 8 10 10 9 9 10 13 11 7 7 7 6 6 7 7 6 nan
nan 11 9 9 10 7 7 7 7 9 9 8 8 6 6 7 6 7 10 6 6 9 8 9 12 10 8 9 12 7 5 8 8 10 15 14 9 10 8 7 6 7 nan
nan 12 10 8 9 10 9 6 7 9 8 9 9 7 7 7 6 7 9 7 6 9 7 8 9 11 7 8 9 9 9 8 5 6 9 15 18 13 10 9 8 8 nan
nan 11 10 9 8 9 10 8 6 9 8 7 10 9 6 6 7 8 8 7 6 10 12 12 7 12 10 7 10 9 10 12 9 6 10 11 8 11 11 9 10 8 nan
nan 20 12 10 8 10 9 7 8 10 9 6 8 9 8 6 5 7 8 7 7 8 9 7 12 14 12 7 7 8 9 9 13 16 12 7 7 6 7 9 8 8 nan
nan 12 21 21 11 9 8 8 8 7 9 8 8 9 7 8 8 6 8 8 7 7 9 9 10 10 12 13 10 8 6 9 13 16 11 8 7 7 7 5 6 8 nan
nan 10 11 19 22 11 10 11 8 8 10 10 8 8 9 7 6 7 7 7 7 8 8 7 9 11 12 13 13 12 11 7 9 18 14 9 8 7 7 7 6 8 nan
nan 10 9 11 13 21 22 8 9 10 9 11 11 9 9 8 8 5 8 8 6 7 8 5 6 10 11 12 12 11 8 12 9 13 15 13 14 12 9 7 7 8 nan
nan 9 10 10 11 14 14 20 22 10 10 9 8 10 11 12 9 2 3 8 6 6 6 7 3 5 8 13 13 8 10 10 10 10 12 11 11 11 15 13 11 11 nan
nan 10 9 9 10 8 3 8 20 30 16 9 8 9 10 14 15 14 6 3 2 2 2 6 4 6 5 5 11 10 8 6 10 14 11 9 10 9 11 17 17 11 nan
nan 10 9 10 9 5 5 9 10 18 20 21 11 8 8 12 14 15 17 15 12 9 1 1 5 7 6 8 7 9 7 6 9 15 13 5 11 11 11 18 17 9 nan
nan 10 9 9 9 5 5 10 15 16 11 13 20 17 13 10 10 9 12 14 14 12 11 6 7 7 10 10 11 12 6 1 5 19 15 8 11 12 10 20 20 9 nan
nan 11 9 10 10 6 5 10 16 16 12 12 12 15 16 16 15 12 7 9 13 12 15 10 6 10 15 15 6 6 14 8 3 12 10 8 12 14 10 12 23 20 nan
nan nan nan nan nan nan nan nan nan nan nan nan nan nan nan nan nan nan nan nan nan nan nan nan nan nan nan nan nan nan nan nan nan nan nan nan nan nan nan nan nan nan nan
CAPE
90 27 0 0 0 0 0 2 1 0 0 0 0 0 0 0 0 0 0 0 0 188 75 105 304 306 267 127 172 246 262 255 238 189 192 92 84 10 15 8 6 10 8
24 0 0 0 0 0 0 1 0 0 0 0 0 0 0 0 0 0 0 0 0 3 178 178 109 312 274 251 300 283 246 251 194 174 94 29 9 5 6 7 7 11 12
9 0 0 0 0 0 0 0 0 0 0 0 0 0 0 0 0 0 0 0 0 0 0 227 262 290 294 303 325 266 247 182 184 140 59 13 3 7 7 9 5 9 8
0 0 0 0 0 0 0 0 0 0 0 0 0 0 0 0 0 0 0 0 0 1 7 83 172 209 264 293 268 256 193 150 143 71 19 10 5 6 7 4 11 4 10
0 0 4 0 0 0 0 0 0 0 0 0 0 0 0 0 0 0 0 0 0 0 11 59 76 92 159 242 206 178 141 95 53 25 13 6 7 5 6 6 7 8 16
0 0 1 0 0 0 0 0 0 0 0 0 0 0 0 0 0 0 0 0 0 0 1 6 31 16 60 138 161 125 46 16 8 7 5 6 5 6 5 9 5 11 12
0 1 5 3 0 0 0 0 0 0 0 0 0 1 0 0 0 0 0 0 0 0 0 1 60 14 36 57 106 90 22 7 6 4 4 5 9 4 9 5 7 10 15
0 0 0 0 0 1 0 0 0 0 0 0 1 1 2 1 0 0 0 0 0 0 0 1 1 0 11 21 35 4 13 7 10 7 8 10 7 7 8 7 7 8 5
0 0 0 0 0 0 0 0 0 0 1 1 0 0 3 3 1 0 0 0 0 0 0 0 0 0 0 0 0 0 3 8 8 9 11 7 5 7 10 9 6 7 8
0 0 0 0 0 0 0 0 0 0 1 1 2 0 0 0 0 2 0 0 0 0 0 0 0 0 0 0 0 0 0 2 14 11 13 3 5 8 10 8 11 6 5
0 0 0 0 0 0 0 0 0 0 0 0 0 0 0 0 0 0 1 1 0 0 0 0 0 0 0 0 0 0 0 9 16 15 14 13 11 8 5 4 8 6 7
1 0 0 0 0 0 0 0 0 0 0 0 0 0 0 0 0 0 0 1 0 0 0 0 0 0 0 0 0 0 0 11 23 21 20 22 18 14 14 8 4 4 7
1 2 0 0 0 0 0 0 0 0 0 0 0 0 0 0 0 0 0 0 0 0 0 0 0 0 0 0 0 0 0 1 16 37 38 38 26 15 14 10 12 3 10
1 1 1 1 0 0 0 0 0 0 0 0 0 0 0 0 0 0 0 0 0 0 0 0 0 0 0 0 0 0 0 0 0 11 42 56 42 25 7 10 9 11 7
19 1 1 0 0 0 0 0 0 0 0 0 0 0 0 0 0 0 0 0 0 0 0 0 0 0 0 0 0 0 0 0 0 0 0 2 2 9 1 10 7 6 8
27 1 1 1 1 0 0 0 0 0 0 0 0 0 0 0 0 0 0 0 0 0 0 0 0 0 0 0 0 0 0 0 0 0 0 0 0 0 0 0 1 4 4
1 8 1 0 0 0 0 0 0 0 0 0 0 0 0 0 0 0 0 0 0 0 0 0 0 0 0 0 0 0 0 0 0 0 0 0 0 0 0 0 0 2 0
0 1 3 1 8 0 0 0 0 0 0 0 0 0 0 0 0 0 0 0 0 0 0 0 0 0 0 0 0 0 0 0 0 0 0 0 0 0 0 0 0 0 6
0 1 0 1 5 3 0 0 0 0 0 0 0 0 0 0 0 0 0 0 0 0 0 0 0 0 0 0 0 0 0 0 0 0 0 0 0 0 0 0 0 0 0
0 0 0 1 0 1 0 0 0 0 0 0 0 0 0 0 0 0 0 0 0 0 0 0 0 0 0 0 0 0 0 0 0 0 0 0 0 0 0 0 0 0 0
0 0 0 0 2 1 1 0 0 0 0 0 0 0 0 0 0 0 0 0 0 0 0 0 0 0 0 0 0 0 0 0 0 0 0 0 0 0 0 0 0 0 0
1 0 0 0 0 1 3 1 1 1 0 0 0 0 0 0 0 0 0 0 0 0 0 0 0 0 0 0 0 0 0 0 0 0 0 0 0 0 0 0 0 0 0
2 1 0 0 0 1 1 5 3 1 2 0 0 0 0 0 0 0 0 0 0 0 0 0 0 0 0 0 0 0 0 0 0 0 0 0 0 0 0 0 0 0 5
3 3 2 0 1 0 0 4 6 2 0 0 1 0 0 0 0 0 0 0 0 0 0 0 0 0 0 0 0 0 0 0 0 0 0 0 0 0 0 0 2 5 4
2 2 3 1 1 1 1 1 3 1 0 0 0 0 0 0 0 0 0 0 0 0 0 0 0 0 0 0 0 0 0 0 0 0 0 0 0 0 0 0 0 6 7
3 2 2 1 0 0 0 4 4 3 0 0 0 0 0 0 0 0 0 0 0 0 0 0 0 0 0 0 0 0 0 0 0 0 0 0 0 0 0 0 0 0 0